{"data":{"norad_id":26580,"epoch":"2026-05-25T03:10:18.844320Z","epoch_age_seconds":63323,"freshness":"FRESH","line1":"1 26580U 00067A   26145.13216255  .00000086  00000+0  00000+0 0  9999","line2":"2 26580   0.1133  79.7910 0003550 346.6461  88.8148  1.00270926 93665","mean_motion":1.00270926,"eccentricity":0.000355,"inclination_deg":0.1133,"raan_deg":79.791,"arg_perigee_deg":346.6461,"mean_anomaly_deg":88.8148,"bstar":0,"rev_number":9366,"period_min":1436.1092067705,"perigee_km":35771.867206458,"apogee_km":35801.804337126,"semimajor_km":42164.972771792,"source":"CELESTRAK","updated_at":"2026-05-25T13:38:14.472596Z"}}